Skip Page Navigation
NASA JPL Caltech
NASA Logo - Jet Propulsion Laboratory + View the NASA Portal
+ Center for Near-Earth Object Studies
JPL Home Earth Solar System Stars & Galaxies Technology
JPL Solar System Dynamics
BODIES ORBITS EPHEMERIDES TOOLS PHYSICAL DATA DISCOVERY FAQ SITE MAP
JPL Small-Body Database Browser
Search: [ help ]  
136128 (2003 SO36)
Classification: Main-belt Asteroid          SPK-ID: 2136128
Ephemeris | Orbit Diagram | Orbital Elements | Mission Design | Physical Parameters | Discovery Circumstances ]

[ show orbit diagram ]
Orbital Elements at Epoch 2459000.5 (2020-May-31.0) TDB
Reference: JPL 15 (heliocentric ecliptic J2000)
 Element Value Uncertainty (1-sigma)   Units 
e .120520379114829 4.3579e-08  
a 2.245767590271923 1.0328e-08 au
q 1.975106828888555 9.4628e-08 au
i .8952591592298285 4.4398e-06 deg
node 44.33831583382954 0.00029914 deg
peri 17.89882689527044 0.0002999 deg
M 297.7600140386605 2.2474e-05 deg
tp 2459213.026273471810
(2020-Dec-29.52627347)
7.7361e-05 TDB
period 1229.265355191043
3.37
8.48e-06
2.322e-08
d
yr
n .2928578426779558 2.0203e-09 deg/d
Q 2.516428351655291 1.1573e-08 au
  Orbit Determination Parameters
   # obs. used (total)      504  
   data-arc span      6807 days (18.64 yr)  
   first obs. used      2000-12-30  
   last obs. used      2019-08-20  
   planetary ephem.      DE431  
   SB-pert. ephem.      SB431-N16  
   condition code      0  
   norm. resid. RMS      .59604  
   source      ORB  
   producer      Otto Matic  
   solution date      2019-Sep-24 03:27:50  

Additional Information
 Earth MOID = .98807 au 
 Jupiter MOID = 2.74972 au 
 T_jup = 3.621 
[ show covariance matrix ]

Ephemeris | Orbit Diagram | Orbital Elements | Mission Design | Physical Parameters | Discovery Circumstances ]

Physical Parameter Table
Parameter Symbol Value Units Sigma Reference Notes
absolute magnitude H 16.8   n/a MPO436669  

136128 (2003 SO36)          Discovered 2003-Sep-17 by Spacewatch at Kitt Peak
Reference: 20060907/Numbers.arcLast Updated: 2006-09-10

Alternate Designations
 2003 SO36 = 2000 YV75 
Ephemeris | Orbit Diagram | Orbital Elements | Mission Design | Physical Parameters | Discovery Circumstances ]
ABOUT SSD CREDITS/AWARDS PRIVACY/COPYRIGHT GLOSSARY LINKS
FirstGov 2020-Jul-13 09:40 UT
(server date/time)  
NASA Home Page
Site Manager:   Ryan S. Park
Webmaster  Alan B. Chamberlin